Location: Unspecified
(0.0000°N, 0.0000°E)
Time: 17:47:19
(UTC+00:00)

STARLINK 1062 - Pass Details

Date: 19 January 2020
Orbit: 548 x 551 km, 53.0° (Epoch: 22 January)

Event Time Altitude Azimuth Distance (km) Brightness Sun altitude
Rises 18:54:01 0° 290° (WNW) 2,707 8.0 -10.2°
Reaches altitude 10° 18:57:31 10° 259° (WSW) 1,819 7.8 -11.0°
Maximum altitude 18:59:10 12° 235° (SW) 1,688 7.4 -11.4°
Drops below altitude 10° 19:00:50 10° 211° (SSW) 1,823 7.1 -11.7°
Sets 19:04:22 0° 180° (S) 2,721 7.4 -12.6°
